Location: Ayer Observatory
(42.2600°N, 71.0700°W)
Time: 18:52:39
(UTC-04:00)

SO-50 - Visible Passes

Search period start: 15 July 2019 00:00
Search period end: 25 July 2019 00:00
Orbit: 587 x 700 km, 64.6° (Epoch: 14 July)

Date Brightness Start Highest point End Pass type
(mag) Time Alt. Az. Time Alt. Az. Time Alt. Az.
15 Jul ? 03:45:05 10° S 03:49:12 28° ESE 03:53:24 10° NE visible
16 Jul ? 04:09:44 13° SSW 04:14:04 65° ESE 04:18:59 10° NE visible
17 Jul ? 02:56:46 14° SE 02:59:08 19° ESE 03:02:37 10° ENE visible
17 Jul ? 04:34:24 10° SW 04:39:10 57° NW 04:44:04 10° NNE visible
18 Jul ? 03:21:23 24° S 03:23:53 44° ESE 03:28:36 10° NE visible
19 Jul ? 02:08:19 13° ESE 02:09:06 13° ESE 02:11:21 10° E visible
19 Jul ? 03:45:58 25° SW 03:48:53 81° NW 03:53:52 10° NNE visible
20 Jul ? 02:32:51 29° SE 02:33:46 31° ESE 02:38:04 10° NE visible
20 Jul ? 04:10:29 15° WSW 04:14:07 38° NW 04:18:46 10° NNE visible
21 Jul ? 02:57:20 47° S 02:58:39 72° ESE 03:03:35 10° NE visible
21 Jul ? 04:35:59 10° W 04:39:38 20° NW 04:43:19 10° N visible
22 Jul ? 01:44:08 21° ESE 01:44:08 21° ESE 01:47:22 10° ENE visible
22 Jul ? 03:21:45 31° WSW 03:23:47 52° NW 03:28:38 10° NNE visible
23 Jul ? 02:08:31 49° ESE 02:08:31 49° ESE 02:13:14 10° NE visible
23 Jul ? 03:46:08 15° W 03:49:10 26° NW 03:53:21 10° NNE visible
24 Jul ? 00:55:14 13° E 00:55:14 13° E 00:56:16 10° ENE visible
24 Jul ? 02:32:52 64° WSW 02:33:28 74° NW 02:38:27 10° NNE visible
24 Jul ? 04:11:59 10° WNW 04:14:49 15° NW 04:17:39 10° N visible
